GLOBALSTAR M060 [-]

Last updated on Fri Dec 29 2023 00:02:56 GMT+0000 (Coordinated Universal Time)

1 26083U 00008C 23361.64332990 -.00000122 00000+0 -31248-3 0 9995 2 26083 52.0012 120.4416 0004405 112.6541 349.0372 12.17621042 87056

Satellite not in orbit

GLOBALSTAR M060 [-]